Gakona, AK

10:31 AM AKDT on July 23, 2016 (GMT -0800)
Gulkana

Weather History for PAGK - February, 2014

Change the Weather History Date:

Tuesday, February 11, 2014

  Actual Average Record
Temperature  
Mean Temperature -23 °F -  
Max Temperature -11 °F 12 °F 42 °F (1980)
Min Temperature -35 °F -6 °F -45 °F (1999)
Degree Days  
Heating Degree Days 88    
Moisture  
Dew Point -25 °F    
Average Humidity 76    
Maximum Humidity 83    
Minimum Humidity 63    
Precipitation  
Precipitation 0.00 in - - ()
Sea Level Pressure  
Sea Level Pressure 29.97 in    
Wind  
Wind Speed 2 mph (NNW)    
Max Wind Speed 6 mph    
Max Gust Speed -    
Visibility 10 miles    
Events Snow    
Averages and records for this station are not official NWS values.
T = Trace of Precipitation, MM = Missing Value Source: NWS Daily Summary

Daily Weather History Graph

Daily Weather History Graph

Search for Another Location

Airport or City:

Trip Planner

Search our weather history database for the weather conditions in past years. The results will help you decide how hot, cold, wet, or windy it might be!

Date:

Astronomy

Feb. 11, 2014 Rise Set
Actual Time 8:39 AM AKST 5:13 PM AKST
Civil Twilight 7:51 AM AKST 6:02 PM AKST
Nautical Twilight 6:58 AM AKST 6:55 PM AKST
Astronomical Twilight 6:06 AM AKST 7:46 PM AKST
Moon 2:17 PM AKST (2/11) 6:50 AM AKST (2/11)
Length of Visible Light 10h 11m
Length of Day
8h 34m
Waxing Gibbous, 91% of the Moon is Illuminated
Feb 11
Waxing Gibbous
Feb 14
Full
Feb 22
Last Quarter
Feb 28
New
Mar 8
First Quarter

Hourly Weather History & Observations

Time (AKST) Temp. Windchill Dew Point Humidity Pressure Visibility Wind Dir Wind Speed Gust Speed Precip Events Conditions
12:53 AM -29.9 °F -44.8 °F - N/A% 30.16 in 10.0 mi NW 4.6 mph - N/A   Clear
1:53 AM -29.9 °F -44.8 °F - N/A% 30.14 in 10.0 mi North 4.6 mph - N/A   Clear
3:53 AM -31.0 °F -43.3 °F - N/A% 30.11 in 10.0 mi NNW 3.5 mph - N/A   Clear
4:53 AM -29.9 °F -47.1 °F - N/A% 30.10 in 10.0 mi NW 5.8 mph - N/A   Clear
5:53 AM -32.1 °F - - N/A% 30.11 in 10.0 mi Calm Calm - 0.00 in   Clear
6:53 AM -35.0 °F -47.8 °F - N/A% 30.10 in 10.0 mi North 3.5 mph - N/A   Clear
7:53 AM -34.1 °F - - N/A% 30.11 in 10.0 mi Calm Calm - N/A   Clear
8:53 AM -35.0 °F - - N/A% 30.10 in 10.0 mi Calm Calm - N/A   Clear
9:53 AM -29.9 °F -42.0 °F - N/A% 30.07 in 10.0 mi NNW 3.5 mph - N/A   Clear
10:53 AM -20.9 °F - -26.0 °F 77% 30.04 in 10.0 mi Calm Calm - N/A   Clear
11:53 AM -16.1 °F - -23.1 °F 71% 30.01 in 10.0 mi Calm Calm - 0.00 in   Clear
12:53 PM -16.1 °F - -20.0 °F 82% 30.00 in 10.0 mi Calm Calm - 0.00 in Snow Light Snow
1:53 PM -13.0 °F - -18.0 °F 78% 29.96 in 10.0 mi Calm Calm - 0.00 in   Clear
2:53 PM -11.0 °F - -15.0 °F 83% 29.92 in 10.0 mi Calm Calm - N/A   Clear
3:53 PM -11.0 °F - -16.1 °F 78% 29.90 in 10.0 mi Calm Calm - N/A   Clear
4:53 PM -14.1 °F - -18.9 °F 79% 29.87 in 10.0 mi Calm Calm - N/A   Clear
5:53 PM -18.9 °F - -24.0 °F 78% 29.86 in 10.0 mi Calm Calm - N/A   Clear
6:53 PM -22.0 °F - -27.0 °F 77% 29.85 in 10.0 mi Calm Calm - N/A   Clear
7:53 PM -26.0 °F - -31.0 °F 77% 29.83 in 10.0 mi Calm Calm - N/A   Clear
8:53 PM -29.0 °F - -34.1 °F 77% 29.82 in 8.0 mi Calm Calm - N/A   Partly Cloudy
9:53 PM -29.0 °F - -34.1 °F 77% 29.79 in 10.0 mi Calm Calm - N/A   Clear
10:53 PM -29.9 °F -42.0 °F - N/A% 29.75 in 10.0 mi NW 3.5 mph - N/A   Clear
11:53 PM -29.0 °F -41.0 °F -34.1 °F 77% 29.72 in 10.0 mi North 3.5 mph - N/A   Clear